www.pogodaiklimat.ru

ПОГОДА в Джалинде

  • Прогноз погоды в Джалинде
  • Монитор погоды в Джалинде
  • Климат города

АРХИВ ПОГОДЫ в Джалинде

Время (UTC), дата Ветер
(напр.,м/с)
 
Видим.   Явления Облачность Т
(С)
Тd
(С)
f
(%)
Тe
(С)
Тes
(С)
Комфортность P
(гПа)
Po
(гПа)
Тmin
(С)
Tmax
(С)
R
(мм)
S
(см)
18 9.01 З 1 50 км 1/0
[Ci fib]
-17.6 -21.0 75 -20 -20 1022.5 1014.1
21 9.01 СЗ 1 50 км ясно -18.6 -21.9 75 -21 -21 1025.3 1016.8
00 10.01 СЗ 3 50 км 1/0
[]
-18.5 -22.6 70 -26 -26 1025.8 1018.6 -18.6 29
03 10.01 СЗ 3 50 км ясно -20.8 -24.8 70 -29 -29 1025.7 1017.2
06 10.01 СЗ 1 50 км 3/0
[Ci fib]
-21.7 -25.7 70 -25 -25 1026.9 1018.2
09 10.01 З 3 50 км 3/0
[Ci fib]
-18.8 -23.7 65 -26 -26 1027.9 1019.4
12 10.01 З 1 50 км 3/0
[Ci sp]
-21.1 -26.8 60 -24 -24 1028.8 1020.3 -18.7
15 10.01 З 1 50 км ясно -23.6 -29.3 59 -27 -27 1029.8 1021.1
18 10.01 З 1 50 км ясно -24.7 -29.4 65 -28 -28 1030.3 1021.6
21 10.01 штиль 0 50 км 3/0
[Ci fib]
-34.3 -37.1 76 -34 -34 опасность
обморожения
1028.9 1019.8
00 11.01 штиль 0 50 км 3/0
[Ci fib]
-35.2 -38.0 75 -35 -35 опасность
обморожения
1030.1 1021.0 -35.2 29
03 11.01 штиль 0 50 км 3/0
[Ci fib]
-35.1 -38.0 75 -35 -35 опасность
обморожения
1030.2 1021.1
06 11.01 штиль 0 50 км 3/0
[Ci fib]
-39.2 -41.8 76 -39 -39 опасность
обморожения
1031.5 1022.3
09 11.01 штиль 0 50 км ясно -40.3 -43.3 73 -40 -40 опасность
обморожения
1035.1 1025.8
12 11.01 штиль 0 50 км ясно -42.3 -45.0 75 -42 -42 опасность
обморожения
1036.1 1026.6 -35.1
15 11.01 штиль 0 50 км ясно -43.3 -46.3 72 -43 -43 опасность
обморожения
1037.8 1028.3
18 11.01 штиль 0 50 км ясно -44.0 -47.0 72 -44 -44 опасность
обморожения
1039.0 1029.5
21 11.01 штиль 0 50 км ясно -45.7 -48.6 72 -46 -46 опасность
обморожения
1039.3 1029.8
00 12.01 штиль 0 50 км ясно -46.4 -48.6 78 -46 -46 опасность
обморожения
1039.4 1029.9 -46.4 29
03 12.01 штиль 0 50 км ясно -47.4 -49.6 78 -47 -47 опасность
обморожения
1040.6 1030.8
06 12.01 штиль 0 50 км ясно -45.7 -48.6 72 -46 -46 опасность
обморожения
1040.6 1031.1
09 12.01 штиль 0 50 км ясно -44.9 -47.8 72 -45 -45 опасность
обморожения
1037.5 1028.0
12 12.01 штиль 0 50 км ясно -43.8 -46.3 76 -44 -44 опасность
обморожения
1038.2 1028.7 -43.8
15 12.01 ЮЗ 1 50 км ясно -41.8 -44.4 76 -47 -47 опасность
обморожения
1038.0 1028.6
18 12.01 Ю 1 50 км ясно -41.3 -43.8 77 -47 -47 опасность
обморожения
1035.5 1027.2
21 12.01 штиль 0 50 км ясно -41.8 -44.4 76 -42 -42 опасность
обморожения
1040.5 1031.0
00 13.01 ЮВ 1 50 км ясно -38.1 -40.9 75 -43 -43 опасность
обморожения
1040.3 1031.0 -41.8 29
03 13.01 Ю 3 50 км 3/0
[Ci fib]
-38.1 -40.9 75 -49 -49 опасность
обморожения
1039.3 1030.0
06 13.01 Ю 3 50 км 3/0
[Ci fib]
-37.6 -40.5 74 -49 -49 опасность
обморожения
1039.2 1029.9
09 13.01 Ю 3 50 км 3/0
[Ci fib]
-37.2 -40.1 74 -48 -48 опасность
обморожения
1039.7 1030.4
12 13.01 Ю 3 50 км 3/0
[Ci sp]
-37.0 -39.8 75 -48 -48 опасность
обморожения
1040.1 1030.8 -37.0
15 13.01 ЮВ 3 50 км ясно -35.9 -38.7 75 -47 -47 опасность
обморожения
1039.7 1030.6
18 13.01 ЮВ 3 50 км ясно -35.4 -38.4 74 -46 -46 опасность
обморожения
1039.4 1030.3
21 13.01 Ю 3 50 км 4/4 600 м
[Sc]
-31.6 -34.5 75 -42 -42 опасность
обморожения
1035.4 1026.4
00 14.01 Ю 3 50 км 10/0
[Cs]
-29.9 -32.4 79 -39 -39 опасность
обморожения
1035.7 1025.7 -35.9 29
03 14.01 штиль 0 50 км 10/0
[Ac trans Ci sp]
-30.1 -32.6 79 -30 -30 1038.0 1029.0
06 14.01 штиль 0 50 км 9/0
[Ci sp]
-30.2 -32.6 79 -30 -30 1038.5 1029.5
09 14.01 штиль 0 50 км 4/0
[Ci sp]
-30.5 -33.6 74 -31 -31 опасность
обморожения
1041.3 1032.3
12 14.01 Ю 1 50 км 4/0
[Ci sp]
-31.5 -34.5 75 -36 -36 опасность
обморожения
1042.5 1033.4 -29.9
15 14.01 Ю 1 50 км 3/0
[Ci sp]
-32.7 -35.8 74 -37 -37 опасность
обморожения
1042.6 1033.5
18 14.01 штиль 0 50 км 3/0
[Ci sp]
-33.6 -36.6 74 -34 -34 опасность
обморожения
1042.6 1033.5
21 14.01 Ю 1 50 км ясно -33.8 -36.8 74 -38 -38 опасность
обморожения
1043.5 1034.4
00 15.01 штиль 0 50 км ясно -38.0 -40.9 74 -38 -38 опасность
обморожения
1043.7 1034.4 -38.0 29
03 15.01 штиль 0 50 км ясно -40.8 -43.8 73 -41 -41 опасность
обморожения
1043.9 1034.6
06 15.01 штиль 0 50 км ясно -39.9 -42.8 74 -40 -40 опасность
обморожения
1043.6 1034.3
09 15.01 штиль 0 50 км 3/0
[Ci fib]
-40.0 -42.8 74 -40 -40 опасность
обморожения
1040.9 1031.6
12 15.01 штиль 0 50 км 3/0
[Ci fib]
-39.3 -42.3 73 -39 -39 опасность
обморожения
1040.8 1031.5 -39.3
15 15.01 штиль 0 50 км ясно -40.0 -42.8 74 -40 -40 опасность
обморожения
1040.8 1031.5
18 15.01 Ю 1 50 км ясно -39.9 -42.8 74 -45 -45 опасность
обморожения
1040.4 1031.1
21 15.01 ЮВ 3 50 км ясно -39.9 -42.8 74 -52 -52 опасность
обморожения
1041.2 1031.9
00 16.01 ЮВ 3 50 км ясно -40.8 -43.7 73 -53 -53 опасность
обморожения
1042.0 1032.7 -40.8 29
03 16.01 Ю 3 50 км ясно -41.9 -44.4 76 -54 -54 опасность
обморожения
1040.1 1030.6
06 16.01 Ю 3 50 км 3/0
[Ci sp]
-40.2 -42.8 76 -52 -52 опасность
обморожения
1038.0 1028.7
09 16.01 Ю 3 50 км 3/0
[Ci sp]
-38.6 -41.4 75 -50 -50 опасность
обморожения
1037.5 1028.2
12 16.01 Ю 3 50 км 3/0
[]
-38.4 -41.4 73 -50 -50 опасность
обморожения
1037.2 1027.9 -38.4
15 16.01 Ю 3 50 км ясно -38.2 -40.9 76 -49 -49 опасность
обморожения
1036.9 1027.6

 

Местоположение метеостанции Джалинда (Якутия, Россия): широта 70.13 долгота 113.90 высота над уровнем моря 62 м.

В архиве по умолчанию представлена погода в Джалинде за последнюю неделю. Архивные данные за месяц целиком и за предыдущие месяцы, начиная с января 2011 года, Вы можете получить, выбрав интересующий диапазон дат из раскрывающегося списка и нажав кнопку "Ввод!".

Внимание! Время в таблицах - всемирное. Для получения местного времени необходимо прибавить поправку, которая в Джалинде равна 9 ч.

Ветер - указаны скорость ветра в м/с - средняя за 10 мин, порывы в срок и между сроками (в фигурных скобках) и направление, откуда дует ветер: С - северный, СВ - северо-восточный, В - восточный, ЮВ - юго-восточный, Ю - южный, ЮЗ - юго-западный, З - западный, СЗ - северо-западный.
Видимость - горизонтальная дальность видимости в метрах или километрах. При видимости от 1 до 10 км при отсутствии осадков обычно наблюдается дымка, при ухудшении видимости до 1 км и менее - туман. В сухую погоду видимость может ухудшаться дымом, пылью или мглою.
Явления - указаны атмосферные явления, наблюдавшиеся в срок или в последний час перед сроком; фигурными скобками обозначены явления, наблюдавшиеся между сроками (за 1-3 часа до срока); квадратными скобками обозначены град или гололедные отложения с указанием их диаметра в мм.
Облачность - указаны через наклонную черту общая и нижняя облачность в баллах и высота нижней границы облаков в метрах; квадратными скобками обозначены формы облаков: Ci - перистые, Cs - перисто-слоистые, Cc - перисто-кучевые, Ac - высококучевые, As - высокослоистые, Sc - слоисто-кучевые, Ns - слоисто-дождевые, Cu - кучевые, Cb - кучево-дождевые. Подробнее классификацию облаков см. в Атласе облаков (PDF).
T - Температура воздуха - температура, измеренная на высоте 2 м над землей.
Td - Температура точки росы - температура, при понижении до которой содержащийся в воздухе водяной пар достигнет насыщения.
f - Относительная влажность воздуха - влажноcть воздуха, измеренная на высоте 2 м над землей.
Te - Эффективная температура - температура, которую ощущает одетый по сезону человек в тени. Характеристика душности погоды. При расчете учитывается влияние влажности воздуха и скорости ветра на теплоощущения человека.
Tes - Эффективная температура на солнце - температура, которую ощущает человек, с поправкой на солнечный нагрев. Характеристика знойности погоды. Зависит от высоты солнца над горизонтом, облачности и скорости ветра. Ночью, в пасмурную погоду, а также при ветре 12 м/с и более поправка равна нулю.
P - Атмосферное давление - приведенное к уровню моря атмосферное давление.
Po - Атмосферное давление - измеренное на уровне метеостанции атмосферное давление.
Tmin - Минимальная температура - минимум температуры воздуха на высоте 2 м над землей.
Tmax - Максимальная температура - максимум температуры воздуха на высоте 2 м над землей.
R - Количество осадков - Количество выпавших осадков, мм. При наведении курсора мыши на число - период времени, за который выпало указанное количество осадков.
S - Снежный покров - Высота снежного покрова, см. При наведении курсора мыши на число - состояние снежного покрова и степень покрытия местности в баллах.